Location: Eaton
(41.3139°N, 82.0207°W)
Time: 15:56:16
(UTC+00:00)

Cosmos 2292 Rocket - Pass Details

Date: 17 June 2021
Orbit: 381 x 1445 km, 83.0° (Epoch: 01 August)

Event Time Altitude Azimuth Distance (km) Brightness Sun altitude
Exits shadow 08:42:46 18° 233° (SW) 1,082 4.2 -11.3°
Maximum altitude 08:44:22 28° 280° (W) 776 3.8 -11.1°
Drops below altitude 10° 08:47:00 10° 344° (NNW) 1,412 5.8 -10.7°
Sets 08:49:07 0° 356° (N) 2,273 7.1 -10.4°
